TimeEST,TemperatureF,Dew PointF,Humidity,Sea Level PressureIn,VisibilityMPH,Wind Direction,Wind SpeedMPH,Gust SpeedMPH,PrecipitationIn,Events,Conditions,WindDirDegrees,DateUTC
12:15 AM,42.8,24.8,49,29.93,10.0,West,16.1,25.3,N/A,,Overcast,260,2013-01-10 05:15:00
12:35 AM,41.0,24.8,53,29.93,10.0,WSW,16.1,24.2,N/A,,Overcast,250,2013-01-10 05:35:00
12:55 AM,41.0,24.8,53,29.94,10.0,WSW,19.6,34.5,N/A,,Mostly Cloudy,250,2013-01-10 05:55:00
1:15 AM,39.2,26.6,61,29.96,10.0,WSW,21.9,31.1,N/A,,Overcast,250,2013-01-10 06:15:00
1:35 AM,37.4,28.4,70,29.97,10.0,WSW,21.9,28.8,N/A,,Overcast,250,2013-01-10 06:35:00
1:55 AM,37.4,28.4,70,29.99,10.0,West,17.3,29.9,N/A,,Overcast,260,2013-01-10 06:55:00
2:35 AM,37.4,28.4,70,30.04,10.0,WNW,13.8,24.2,N/A,,Mostly Cloudy,300,2013-01-10 07:35:00
2:55 AM,39.2,26.6,61,30.05,10.0,West,13.8,23.0,N/A,,Mostly Cloudy,280,2013-01-10 07:55:00
3:15 AM,39.2,26.6,61,30.07,10.0,West,12.7,17.3,N/A,,Overcast,270,2013-01-10 08:15:00
3:35 AM,39.2,26.6,61,30.10,10.0,WNW,10.4,21.9,N/A,,Overcast,300,2013-01-10 08:35:00
3:55 AM,37.4,26.6,65,30.12,10.0,West,12.7,18.4,N/A,,Overcast,280,2013-01-10 08:55:00
4:15 AM,37.4,26.6,65,30.14,10.0,WNW,10.4,16.1,N/A,,Mostly Cloudy,290,2013-01-10 09:15:00
4:35 AM,37.4,26.6,65,30.15,10.0,NW,11.5,17.3,N/A,,Overcast,310,2013-01-10 09:35:00
4:55 AM,37.4,26.6,65,30.17,10.0,WNW,10.4,23.0,N/A,,Overcast,290,2013-01-10 09:55:00
5:35 AM,37.4,21.2,52,30.18,10.0,NW,10.4,20.7,N/A,,Overcast,310,2013-01-10 10:35:00
5:55 AM,37.4,21.2,52,30.19,10.0,West,5.8,20.7,N/A,,Mostly Cloudy,270,2013-01-10 10:55:00
6:15 AM,37.4,19.4,48,30.20,10.0,West,8.1,16.1,N/A,,Overcast,280,2013-01-10 11:15:00
6:35 AM,37.4,19.4,48,30.21,10.0,West,8.1,16.1,N/A,,Mostly Cloudy,280,2013-01-10 11:35:00
6:55 AM,37.4,19.4,48,30.22,10.0,West,11.5,17.3,N/A,,Partly Cloudy,270,2013-01-10 11:55:00
7:35 AM,37.4,19.4,48,30.24,10.0,West,8.1,-,N/A,,Scattered Clouds,270,2013-01-10 12:35:00
8:15 AM,37.4,21.2,52,30.28,10.0,West,11.5,18.4,N/A,,Overcast,260,2013-01-10 13:15:00
8:35 AM,37.4,21.2,52,30.29,10.0,West,9.2,19.6,N/A,,Overcast,280,2013-01-10 13:35:00
8:55 AM,37.4,21.2,52,30.29,10.0,WNW,12.7,21.9,N/A,,Overcast,290,2013-01-10 13:55:00
9:35 AM,39.2,21.2,49,30.30,10.0,WNW,13.8,21.9,N/A,,Overcast,290,2013-01-10 14:35:00
9:55 AM,39.2,21.2,49,30.30,10.0,WNW,11.5,23.0,N/A,,Mostly Cloudy,290,2013-01-10 14:55:00
10:15 AM,39.2,21.2,49,30.30,10.0,WNW,17.3,25.3,N/A,,Partly Cloudy,290,2013-01-10 15:15:00
10:35 AM,39.2,21.2,49,30.30,10.0,WNW,16.1,27.6,N/A,,Clear,300,2013-01-10 15:35:00
11:15 AM,41.0,21.2,45,30.30,10.0,WNW,20.7,31.1,N/A,,Clear,300,2013-01-10 16:15:00
11:35 AM,39.2,21.2,49,30.31,10.0,NW,17.3,34.5,N/A,,Partly Cloudy,310,2013-01-10 16:35:00
11:55 AM,41.0,21.2,45,30.30,10.0,WNW,17.3,28.8,N/A,,Partly Cloudy,290,2013-01-10 16:55:00
12:15 PM,41.0,21.2,45,30.29,10.0,West,19.6,32.2,N/A,,Partly Cloudy,280,2013-01-10 17:15:00
12:55 PM,41.0,21.2,45,30.31,10.0,NW,21.9,29.9,N/A,,Partly Cloudy,310,2013-01-10 17:55:00
1:15 PM,41.0,21.2,45,30.32,10.0,WNW,8.1,23.0,N/A,,Clear,290,2013-01-10 18:15:00
1:55 PM,41.0,21.2,45,30.34,10.0,NW,16.1,25.3,N/A,,Partly Cloudy,320,2013-01-10 18:55:00
2:15 PM,41.0,21.2,45,30.35,10.0,NW,10.4,21.9,N/A,,Scattered Clouds,320,2013-01-10 19:15:00
2:35 PM,41.0,19.4,42,30.36,10.0,NW,12.7,23.0,N/A,,Mostly Cloudy,310,2013-01-10 19:35:00
2:55 PM,41.0,21.2,45,30.37,10.0,WNW,10.4,18.4,N/A,,Mostly Cloudy,300,2013-01-10 19:55:00
3:15 PM,41.0,21.2,45,30.37,10.0,WNW,19.6,25.3,N/A,,Partly Cloudy,300,2013-01-10 20:15:00
3:35 PM,39.2,19.4,45,30.36,10.0,WNW,23.0,29.9,N/A,,Clear,300,2013-01-10 20:35:00
3:55 PM,39.2,19.4,45,30.36,10.0,WNW,16.1,24.2,N/A,,Clear,300,2013-01-10 20:55:00
4:15 PM,39.2,19.4,45,30.40,10.0,South,3.5,19.6,N/A,,Clear,190,2013-01-10 21:15:00
4:35 PM,37.4,19.4,48,30.42,10.0,WNW,6.9,-,N/A,,Partly Cloudy,290,2013-01-10 21:35:00
4:55 PM,37.4,19.4,48,30.41,10.0,NW,13.8,21.9,N/A,,Partly Cloudy,310,2013-01-10 21:55:00
5:15 PM,37.4,19.4,48,30.42,10.0,WNW,9.2,-,N/A,,Clear,290,2013-01-10 22:15:00
5:35 PM,35.6,19.4,52,30.43,10.0,West,3.5,-,N/A,,Clear,260,2013-01-10 22:35:00
5:55 PM,35.6,19.4,52,30.44,10.0,Calm,Calm,-,N/A,,Clear,0,2013-01-10 22:55:00
6:15 PM,35.6,19.4,52,30.43,10.0,WNW,13.8,-,N/A,,Clear,290,2013-01-10 23:15:00
6:35 PM,35.6,19.4,52,30.44,10.0,West,5.8,16.1,N/A,,Clear,270,2013-01-10 23:35:00
7:15 PM,35.6,19.4,52,30.45,10.0,WNW,9.2,-,N/A,,Clear,290,2013-01-11 00:15:00
7:35 PM,35.6,19.4,52,30.44,10.0,NW,16.1,29.9,N/A,,Clear,310,2013-01-11 00:35:00
7:55 PM,35.6,19.4,52,30.45,10.0,Calm,Calm,-,N/A,,Clear,0,2013-01-11 00:55:00
8:15 PM,33.8,19.4,56,30.46,10.0,West,9.2,-,N/A,,Clear,270,2013-01-11 01:15:00
8:55 PM,33.8,19.4,56,30.46,10.0,West,8.1,19.6,N/A,,Clear,280,2013-01-11 01:55:00
9:35 PM,33.8,19.4,56,30.48,10.0,South,4.6,-,N/A,,Clear,190,2013-01-11 02:35:00
9:55 PM,30.2,19.4,64,30.49,10.0,WSW,5.8,-,N/A,,Clear,240,2013-01-11 02:55:00
10:15 PM,30.2,19.4,64,30.49,10.0,WSW,4.6,-,N/A,,Clear,240,2013-01-11 03:15:00
10:35 PM,30.2,19.4,64,30.50,10.0,Calm,Calm,-,N/A,,Clear,0,2013-01-11 03:35:00
10:55 PM,28.4,19.4,69,30.50,10.0,WSW,4.6,-,N/A,,Clear,240,2013-01-11 03:55:00
11:15 PM,28.4,19.4,69,30.50,10.0,WSW,5.8,-,N/A,,Clear,240,2013-01-11 04:15:00
11:55 PM,28.4,19.4,69,30.49,10.0,Calm,Calm,-,N/A,,Clear,0,2013-01-11 04:55:00